Home > Weather > Medina > Past weeks

Flag for Saudi Arabia Past Weather in Medina, Saudi Arabia — Yesterday and Last 2 Weeks

Now
97 °F

Clear.


Feels Like: 92 °F
Forecast: 67 / 101 °F
Wind: 12 mph from West

Location: Madinah

Current Time: May 24, 2016 at 8:45:43 PM

Latest Report: May 24, 2016 at 8:00 PM


Visibility: 10 mi

Pressure: 29.89 "Hg (27.95 "Hg at 606m altitude)

Humidity: 3%

Dew Point: 7 °F

Location of MedinaLocation

Past Weather in Medina — Graph

°F

Medina Temperature Yesterday

Maximum temperature yesterday: 108 °F (at 4:00 PM)
Minimum temperature yesterday: 88 °F (at 7:00 AM)
Average temperature yesterday: 99 °F

High & Low Weather Summary for the Past Weeks

 TemperatureHumidityPressure
High109 °F (May 16, 3:00 PM)20% (May 11, 6:00 AM)30.09 "Hg (May 11, 6:00 AM)
Low77 °F (May 10, 5:00 AM)0% (May 23, 5:00 PM)29.80 "Hg (May 17, 5:00 PM)
Average96 °F7%29.92 "Hg
* Reported May 9 7:00 PM — May 24 7:00 PM, Medina, Weather by CustomWeather, © 2016

Note: Actual official high and low records may vary slightly from our data, if they occured in-between our weather recording intervals... More about our weather records

Advertising

Medina Weather History for the Previous 24 Hours

Scroll right to see more
 ConditionsComfort  
Time TempWeatherWind HumidityBarometerVisibility
7:00 PM
Tue, May 24
99 °FSunny.9 mph3%29.86 "Hg10 mi
6:00 PM100 °FSunny.12 mph4%29.86 "Hg6 mi
5:00 PM100 °FSunny.14 mph4%29.86 "Hg6 mi
4:00 PM102 °FSunny.14 mph4%29.86 "Hg5 mi
3:00 PM104 °FSunny.21 mph4%29.86 "Hg5 mi
2:00 PM104 °FSunny.15 mph4%29.86 "Hg10 mi
1:00 PM102 °FSunny.14 mph6%29.89 "Hg10 mi
12:00 PM100 °FSunny.14 mph7%29.92 "Hg10 mi
11:00 AM99 °FSunny.15 mph8%29.95 "Hg10 mi
10:00 AM95 °FSunny.8 mph9%29.95 "Hg10 mi
9:00 AM95 °FSunny.9 mph9%29.95 "Hg10 mi
8:00 AM91 °FSunny.6 mph10%29.95 "Hg10 mi
7:00 AM88 °FSunny.No wind12%29.95 "Hg10 mi
6:00 AM86 °FSunny.No wind12%29.92 "Hg10 mi
5:00 AM86 °FClear.No wind11%29.92 "Hg10 mi
4:00 AM88 °FClear.7 mph10%29.92 "Hg10 mi
3:00 AM90 °FClear.6 mph9%29.89 "Hg10 mi
2:00 AM91 °FClear.9 mph10%29.92 "Hg10 mi
1:00 AM95 °FClear.12 mph8%29.92 "Hg10 mi
12:00 AM95 °FClear.12 mph8%29.95 "Hg10 mi
11:00 PM
Mon, May 23
97 °FClear.15 mph8%29.95 "Hg10 mi
10:00 PM99 °FClear.13 mph8%29.92 "Hg10 mi
9:00 PM100 °FClear.12 mph7%29.92 "Hg10 mi
8:00 PM102 °FClear.10 mph6%29.89 "Hg10 mi
Weather by CustomWeather, © 2016

See weather overviewHow to use our weather pages